Weather History for KIRS - July, 2013

Change the Weather History Date:

Monday, July 1, 2013

  Actual Average (KAZO) Record (KAZO)
Temperature  
Mean Temperature 64 °F 72 °F  
Max Temperature 71 °F 83 °F - ()
Min Temperature 57 °F 61 °F - ()
Degree Days  
Heating Degree Days 1 0  
Month to date heating degree days 0  
Since 1 June heating degree days 48  
Since 1 July heating degree days 0  
Cooling Degree Days 0 7  
Month to date cooling degree days 7  
Year to date cooling degree days 193  
Since 1 June cooling degree days 152  
Growing Degree Days 14 (Base 50)    
Moisture  
Dew Point 52 °F    
Average Humidity 64    
Maximum Humidity 88    
Minimum Humidity 50    
Precipitation  
Precipitation 0.00 in 0.09 in - ()
Month to date precipitation 0.09  
Year to date precipitation 16.11  
Sea Level Pressure  
Sea Level Pressure 30.00 in    
Wind  
Wind Speed 9 mph (NE)    
Max Wind Speed 17 mph    
Max Gust Speed 23 mph    
Visibility 10 miles    
Events      
T = Trace of Precipitation, MM = Missing Value Source: NWS Daily Summary

Daily Weather History Graph

Daily Weather History Graph

Search for Another Location

Airport or City:

Trip Planner

Search our weather history database for the weather conditions in past years. The results will help you decide how hot, cold, wet, or windy it might be!

Date:

Astronomy

Jul. 01, 2013 Rise Set
Actual Time 6:10 AM EDT 9:20 PM EDT
Civil Twilight 5:36 AM EDT 9:54 PM EDT
Nautical Twilight 4:52 AM EDT 10:38 PM EDT
Astronomical Twilight 4:00 AM EDT 11:30 PM EDT
Moon 1:43 AM EDT (7/1) 3:32 PM EDT (7/1)
Length of Visible Light 16h 17m
Length of Day
15h 09m
Waning Crescent, 35% of the Moon is Illuminated
Jul 1
Waning Crescent
Jul 8
New
Jul 15
First Quarter
Jul 22
Full
Jul 29
Last Quarter

Hourly Weather History & Observations

Time (EDT) Temp. Dew Point Humidity Pressure Visibility Wind Dir Wind Speed Gust Speed Precip Events Conditions
12:14 AM 62.6 °F 59.0 °F 88% 29.96 in 10.0 mi North 3.5 mph - N/A   Clear
12:35 AM 62.6 °F 57.2 °F 82% 29.96 in 10.0 mi NNE 4.6 mph - N/A   Clear
12:55 AM 62.6 °F 55.4 °F 77% 29.96 in 10.0 mi NNE 4.6 mph - N/A   Clear
1:14 AM 62.6 °F 55.4 °F 77% 29.96 in 10.0 mi NNE 6.9 mph - N/A   Clear
1:35 AM 60.8 °F 53.6 °F 77% 29.96 in 10.0 mi NNE 6.9 mph - N/A   Clear
1:55 AM 60.8 °F 53.6 °F 77% 29.96 in 10.0 mi NNE 5.8 mph - N/A   Clear
2:14 AM 60.8 °F 51.8 °F 72% 29.95 in 10.0 mi NNE 6.9 mph - N/A   Clear
2:35 AM 60.8 °F 51.8 °F 72% 29.95 in 10.0 mi NNE 6.9 mph - N/A   Clear
2:55 AM 60.8 °F 50.0 °F 68% 29.95 in 10.0 mi NE 8.1 mph - N/A   Clear
3:14 AM 60.8 °F 48.2 °F 63% 29.96 in 10.0 mi NNE 10.4 mph - N/A   Clear
3:35 AM 59.0 °F 48.2 °F 67% 29.96 in 10.0 mi NNE 9.2 mph - N/A   Clear
3:55 AM 57.2 °F 48.2 °F 72% 29.96 in 10.0 mi NNE 5.8 mph - N/A   Clear
4:14 AM 57.2 °F 46.4 °F 67% 29.96 in 10.0 mi NNE 8.1 mph - N/A   Clear
4:35 AM 57.2 °F 46.4 °F 67% 29.96 in 10.0 mi NNE 9.2 mph - N/A   Clear
4:55 AM 57.2 °F 46.4 °F 67% 29.96 in 10.0 mi NNE 9.2 mph - N/A   Clear
5:14 AM 57.2 °F 46.4 °F 67% 29.96 in 10.0 mi NNE 8.1 mph - N/A   Clear
5:35 AM 57.2 °F 46.4 °F 67% 29.96 in 10.0 mi NNE 8.1 mph - N/A   Clear
5:55 AM 57.2 °F 48.2 °F 72% 29.97 in 10.0 mi NNE 8.1 mph - N/A   Clear
6:15 AM 57.2 °F 48.2 °F 72% 29.97 in 10.0 mi NE 9.2 mph - N/A   Clear
6:35 AM 59.0 °F 48.2 °F 67% 29.98 in 10.0 mi NE 10.4 mph - N/A   Clear
6:54 AM 59.0 °F 48.2 °F 67% 29.98 in 10.0 mi NNE 10.4 mph - N/A   Scattered Clouds
7:15 AM 59.0 °F 48.2 °F 67% 29.98 in 10.0 mi NE 11.5 mph - N/A   Scattered Clouds
7:35 AM 59.0 °F 48.2 °F 67% 29.98 in 10.0 mi NNE 10.4 mph 16.1 mph N/A   Clear
7:54 AM 59.0 °F 48.2 °F 67% 29.98 in 10.0 mi NE 9.2 mph - N/A   Scattered Clouds
8:15 AM 60.8 °F 48.2 °F 63% 29.98 in 10.0 mi NNE 9.2 mph - N/A   Clear
8:35 AM 60.8 °F 48.2 °F 63% 29.99 in 10.0 mi NE 10.4 mph - N/A   Clear
8:54 AM 60.8 °F 50.0 °F 68% 29.99 in 10.0 mi NE 10.4 mph - N/A   Clear
9:15 AM 60.8 °F 50.0 °F 68% 29.99 in 10.0 mi NNE 11.5 mph 16.1 mph N/A   Clear
9:35 AM 62.6 °F 51.8 °F 68% 30.00 in 10.0 mi NE 11.5 mph 18.4 mph N/A   Clear
9:55 AM 62.6 °F 51.8 °F 68% 30.00 in 10.0 mi NNE 11.5 mph - N/A   Clear
10:15 AM 64.4 °F 53.6 °F 68% 29.99 in 10.0 mi NNE 9.2 mph 16.1 mph N/A   Clear
10:34 AM 64.4 °F 53.6 °F 68% 29.99 in 10.0 mi NNE 8.1 mph - N/A   Clear
10:55 AM 66.2 °F 55.4 °F 68% 29.99 in 10.0 mi NNE 8.1 mph - N/A   Clear
11:15 AM 68.0 °F 55.4 °F 64% 29.99 in 10.0 mi NNE 10.4 mph 17.3 mph N/A   Clear
11:34 AM 69.8 °F 55.4 °F 60% 29.99 in 10.0 mi NNE 9.2 mph 16.1 mph N/A   Clear
11:55 AM 71.6 °F 53.6 °F 53% 30.00 in 7.0 mi NE 10.4 mph - N/A   Clear
12:15 PM 69.8 °F 53.6 °F 56% 30.00 in 7.0 mi NNE 10.4 mph - N/A   Clear
12:34 PM 71.6 °F 55.4 °F 57% 30.01 in 10.0 mi NE 12.7 mph 16.1 mph N/A   Clear
12:55 PM 71.6 °F 57.2 °F 60% 30.01 in 10.0 mi NE 13.8 mph 17.3 mph N/A   Clear
1:15 PM 71.6 °F 57.2 °F 60% 30.01 in 10.0 mi ENE 16.1 mph 20.7 mph N/A   Clear
1:34 PM 71.6 °F 57.2 °F 60% 30.01 in 7.0 mi ENE 13.8 mph 20.7 mph N/A   Clear
1:55 PM 71.6 °F 57.2 °F 60% 30.01 in 10.0 mi NE 16.1 mph 19.6 mph N/A   Clear
2:15 PM 69.8 °F 55.4 °F 60% 30.01 in 10.0 mi NE 16.1 mph 19.6 mph N/A   Clear
2:34 PM 68.0 °F 55.4 °F 64% 30.01 in 10.0 mi NE 13.8 mph - N/A   Scattered Clouds
2:55 PM 68.0 °F 57.2 °F 68% 30.02 in 10.0 mi NE 10.4 mph 16.1 mph N/A   Scattered Clouds
3:15 PM 69.8 °F 57.2 °F 64% 30.02 in 10.0 mi ENE 12.7 mph - N/A   Scattered Clouds
3:34 PM 68.0 °F 57.2 °F 68% 30.02 in 10.0 mi NE 11.5 mph 17.3 mph N/A   Scattered Clouds
3:55 PM 69.8 °F 57.2 °F 64% 30.02 in 7.0 mi NE 11.5 mph 16.1 mph N/A   Scattered Clouds
4:15 PM 69.8 °F 53.6 °F 56% 30.02 in 7.0 mi ENE 12.7 mph 20.7 mph N/A   Scattered Clouds
4:35 PM 69.8 °F 53.6 °F 56% 30.02 in 10.0 mi ENE 12.7 mph 21.9 mph N/A   Scattered Clouds
4:55 PM 69.8 °F 51.8 °F 53% 30.02 in 10.0 mi NE 15.0 mph 20.7 mph N/A   Scattered Clouds
5:14 PM 71.6 °F 53.6 °F 53% 30.02 in 10.0 mi NE 11.5 mph 21.9 mph N/A   Clear
5:35 PM 71.6 °F 51.8 °F 50% 30.02 in 10.0 mi NE 15.0 mph 19.6 mph N/A   Clear
5:55 PM 69.8 °F 51.8 °F 53% 30.02 in 10.0 mi ENE 17.3 mph 23.0 mph N/A   Clear
6:14 PM 69.8 °F 51.8 °F 53% 30.02 in 10.0 mi NE 13.8 mph 20.7 mph N/A   Clear
6:35 PM 69.8 °F 51.8 °F 53% 30.03 in 10.0 mi NE 10.4 mph 18.4 mph N/A   Scattered Clouds
6:55 PM 69.8 °F 51.8 °F 53% 30.03 in 10.0 mi NE 13.8 mph 19.6 mph N/A   Mostly Cloudy
7:14 PM 68.0 °F 51.8 °F 56% 30.03 in 10.0 mi NE 12.7 mph - N/A   Overcast
7:35 PM 68.0 °F 51.8 °F 56% 30.04 in 10.0 mi NE 9.2 mph - N/A   Mostly Cloudy
7:55 PM 68.0 °F 51.8 °F 56% 30.04 in 10.0 mi ENE 13.8 mph - N/A   Scattered Clouds
8:14 PM 66.2 °F 50.0 °F 56% 30.04 in 10.0 mi ENE 12.7 mph 18.4 mph N/A   Scattered Clouds
8:35 PM 66.2 °F 51.8 °F 60% 30.04 in 10.0 mi ENE 11.5 mph - N/A   Clear
8:55 PM 66.2 °F 48.2 °F 52% 30.05 in 10.0 mi ENE 11.5 mph 19.6 mph N/A   Clear
9:14 PM 64.4 °F 50.0 °F 59% 30.05 in 10.0 mi ENE 9.2 mph - N/A   Clear
9:35 PM 64.4 °F 50.0 °F 59% 30.06 in 10.0 mi ENE 10.4 mph - N/A   Clear
9:54 PM 64.4 °F 50.0 °F 59% 30.06 in 10.0 mi East 10.4 mph - N/A   Mostly Cloudy
10:15 PM 64.4 °F 50.0 °F 59% 30.06 in 10.0 mi NE 10.4 mph - N/A   Overcast
10:35 PM 64.4 °F 50.0 °F 59% 30.05 in 10.0 mi ENE 8.1 mph - N/A   Overcast
10:54 PM 64.4 °F 51.8 °F 64% 30.05 in 10.0 mi NE 9.2 mph - N/A   Overcast
11:15 PM 64.4 °F 51.8 °F 64% 30.04 in 10.0 mi NE 9.2 mph - N/A   Mostly Cloudy
11:35 PM 64.4 °F 51.8 °F 64% 30.04 in 10.0 mi NE 13.8 mph - N/A   Overcast
11:54 PM 64.4 °F 53.6 °F 68% 30.05 in 10.0 mi ENE 15.0 mph 19.6 mph N/A   Mostly Cloudy